CZ-4B DEB (43661 NORAD) Tracking and Keplerian Element Data

This shows tracking and keplerian element data for the satellite.

Feedback or suggestion? Click here.




ElementValue
Catalog43661
NameCZ-4B DEB
Epoch Orbit270
Epoch Day317.45877239
Epoch Year2018
RAAN322.8844
Inclination99.352
Eccentricity0.0012817
Argument of Perigee235.8455
Mean Anonmoly124.149
Mean Motion13.88621501
Decay Rate-1.2E-07
L11 43661U 18081E 18317.45877239 -.00000012 00000-0 28090-4 0 9990
L22 43661 99.3520 322.8844 0012817 235.8455 124.1490 13.88621501 2707

Live tracking and technical data element details for CZ-4B DEB (NORAD 43661). CZ-4B DEB can be tracked NOW for your location showing map with azimuth and elevation plus other details from your city location.

Track the satellite on the map from your city or location and see movement details for azimuth, elevation, latitude, longitude, range, height, and movement on the map or in text.







IsCatalogInMostPopularTable: catalog: 43661, numindb: 14
Update: records affected: 1



GetName: 43661 CZ-4B DEB

Hit Count: updated at: Thu, 15 Nov 2018 03:42:19 GMT